Lexington Weather

Lexington, Massachusetts, USA

77°F
8/3/2020 7:22am 
  • Lexington Conditions: Clear
  • Temperature: 76.5°F / 24.7°CColder 0.1°F than last hour.
  • Dew Point: 73.9°FDecreased 1.5°Fsince last hour.
  • Relative Humidity: 92%Decreased 4.0% since last hour.
  • Wind: Wind from SSW SSW 3 mph, 10-min avg: 3 mph, gust: 8 mph
  • Barometer: 29.84 in Steady
  • Visibility: 10 miles
  • Rain Today: 0.00 in
  •   

Regional Weather Roundup
for Boston / Norton, MA

        
000
ASUS41 KBOX 012204
RWRBOX

REGIONAL WEATHER ROUNDUP
NATIONAL WEATHER SERVICE BOSTON/NORTON MA
600 PM EDT SAT AUG 01 2020

NOTE:  "FAIR" INDICATES FEW OR NO CLOUDS BELOW 12,000 FEET WITH NO 
SIGNIFICANT WEATHER AND/OR OBSTRUCTIONS TO VISIBILITY.

MAZALL-012300-
EASTERN MASSACHUSETTS
  
CITY           SKY/WX    TMP DP  RH WIND       PRES   REMARKS
BOSTON         MOSUNNY   79  62  56 E13       29.93S                  
BEVERLY        SUNNY     79  62  56 SE10      29.93R                  
LAWRENCE       SUNNY     84  65  52 SE5       29.94R                  
BEDFORD        MOSUNNY   84  62  47 SE12      29.91R                  
BLUE HILL      NOT AVBL                                               
NORWOOD        SUNNY     86  64  47 SE8       29.91S                  
MARSHFIELD     SUNNY     81  66  61 SE7       29.93F                  
PLYMOUTH       SUNNY     82  62  50 VRB7      29.94R                  
TAUNTON        MOSUNNY   84  69  60 SE6       29.92R                  
NEW BEDFORD    MOSUNNY   81  68  64 SE13      29.93S                  
$$

MAZALL-012300-
CAPE COD AND THE ISLANDS
  
CITY           SKY/WX    TMP DP  RH WIND       PRES   REMARKS
FALMOUTH       MOSUNNY   81  66  61 S8        29.94S                  
HYANNIS        SUNNY     81  68  64 S6        29.93S                  
CHATHAM        SUNNY     78  68  71 S3        29.96S                  
PROVINCETOWN   SUNNY     82  64  54 VRB5      29.95S                  
NANTUCKET      SUNNY     75  65  70 SW8       29.95S                  
MARTHAS VNYRD  SUNNY     78  66  66 SW10      29.94F                  
$$
 
MAZALL-012300-
CENTRAL AND WESTERN MASSACHUSETTS
  
CITY           SKY/WX    TMP DP  RH WIND       PRES   REMARKS
WORCESTER      SUNNY     86  54  33 W7        29.96S                  
FITCHBURG      SUNNY     89  55  31 N3        29.93S                  
ORANGE         MOSUNNY   88  59  37 NE5       29.93F                  
SPRINGFIELD    MOSUNNY   89  59  36 CALM      29.89F                  
WESTFIELD      PTSUNNY   88  61  40 E3        29.90S                  
NORTH ADAMS    SUNNY     85  57  38 W5        29.93F                  
PITTSFIELD     SUNNY     85  56  37 NW5       29.95S                  
$$
 
RIZALL-012300-
RHODE ISLAND
  
CITY           SKY/WX    TMP DP  RH WIND       PRES   REMARKS
PROVIDENCE     MOSUNNY   85  67  54 S12       29.91F                  
NEWPORT        SUNNY     81  69  67 VRB6      29.93S                  
BLOCK ISLAND   SUNNY     79  71  76 SW12      29.94S                  
SMITHFIELD     SUNNY     88  58  36 N6        29.93S                  
WESTERLY       SUNNY     81  68  64 SW10      29.92F                  
$$
 
CTZALL-012300-
CONNECTICUT
  
CITY           SKY/WX    TMP DP  RH WIND       PRES   REMARKS
BRADLEY INTL   PTSUNNY   88  57  34 S3        29.89F                  
HARTFORD       PTSUNNY   88  64  44 S13       29.89S                  
BRIDGEPORT     SUNNY     86  66  51 SW7       29.91F                  
DANBURY        MOSUNNY   84  61  45 S8        29.93F                  
GROTON         SUNNY     79  71  76 SW8       29.91S                  
NEW HAVEN      SUNNY     85  66  53 SW6       29.92S                  
CHESTER        NOT AVBL                                               
MERIDEN        SUNNY     86  57  37 S12       29.90F                  
WILLIMANTIC    MOSUNNY   85  65  51 SW9       29.91S                  
OXFORD         MOSUNNY   84  63  49 S7        29.95S                  
$$

MEZ002-015-021-024-NHZ003-005-008-011-012-014-VTZ005-008-012300-
NORTHERN NEW ENGLAND
  
CITY           SKY/WX    TMP DP  RH WIND       PRES   REMARKS
PORTLAND ME    MOSUNNY   81  63  54 S8        29.92S                  
BANGOR ME      MOSUNNY   84  60  44 NE6       29.90S                  
CONCORD NH     SUNNY     88  56  33 CALM      29.92S                  
MANCHESTER NH  MOSUNNY   89  55  31 NW5       29.90S                  
NASHUA NH      MOSUNNY   88  58  36 NW6       29.92S                  
PORTSMOUTH NH  MOSUNNY   80  60  50 SE10      29.91S                  
JAFFREY NH     SUNNY     86  57  37 CALM      29.97S                  
KEENE NH       MOSUNNY   86  61  42 SW5       29.93S                  
BURLINGTON VT  MOSUNNY   87  59  38 NW7       29.92S                  
MT. WASHINGTON PTSUNNY   59  46  63 NW14        N/A                   
$$

NYZ052-076-012300-
EASTERN NEW YORK
  
CITY           SKY/WX    TMP DP  RH WIND       PRES   REMARKS
ALBANY         PTSUNNY   84  59  42 E3        29.91F                  
NEW YORK CITY  MOSUNNY   88  61  40 SE12      29.90F                  
$$
 
ANZALL-012300-
MARINE OBSERVATIONS
  
STATION/POSITION TIME  TEMP    WIND        PRES    VSBY  WAVE
                       AIR SEA DIR/SP/G                  HT/PER
                 (UTC) (F)     (DEG/KT/KT) (MB)    (MI)  (FT/S)
BOSTON BUOY      2150   73 75  140/  8/  8 1012.3S         2/ 9
BUZZARDS BAY     2100          180/ 13/ 14 1014.4F
NANTUCKET SOUND  2140      76  220/ 12/ 14 1013.0
MASS BAY-STELLWA 2104   74     150/ 10/ 12 1011.6R  1 7/8  2/ 8
ISLE OF SHOALS   NOT AVBL
S OF BLOCK IS    2126      74                N/A           3/11
$$

......................KEY.........................
  SKY/WX - SKY CONDITION/PRESENT WEATHER
  TMP    - TEMPERATURE IN FAHRENHEIT
  DWPT   - DEWPOINT IN FAHRENHEIT
  RH     - RELATIVE HUMIDITY IN PERCENT
  WIND   - DIRECTION AND SPEED IN MPH
  PRES   - MEAN SEA LEVEL PRESSURE IN INCHES OF HG
  WCI    - WIND CHILL INDEX
  VSB    - VISIBILITY IN MILES
  HX     - HEAT INDEX
  TC     - TEMPERATURE IN CELSIUS
  VRB    - VARIABLE WIND DIRECTION
  N/A    - NOT AVAILABLE
  
      

Other recent Regional Weather Roundups

Mon Aug 3, 7:04am

Mon Aug 3, 6:04am

Mon Aug 3, 5:04am

Mon Aug 3, 4:04am

Mon Aug 3, 3:04am

Mon Aug 3, 2:04am

Mon Aug 3, 1:04am

Mon Aug 3, 12:05am

Sun Aug 2, 11:04pm

Sun Aug 2, 10:04pm

Sun Aug 2, 9:04pm

Sun Aug 2, 8:04pm

Sun Aug 2, 7:04pm

Sun Aug 2, 6:04pm

Sun Aug 2, 5:04pm

Sun Aug 2, 4:05pm

Sun Aug 2, 3:04pm

Sun Aug 2, 2:05pm

Sun Aug 2, 1:04pm

Sun Aug 2, 12:04pm

Sun Aug 2, 11:04am

Sun Aug 2, 10:04am

Sun Aug 2, 9:05am

Sun Aug 2, 8:05am

Sun Aug 2, 7:04am

Sun Aug 2, 6:04am

Sun Aug 2, 5:04am

Sun Aug 2, 4:05am

Sun Aug 2, 3:04am

Sun Aug 2, 2:04am

Sun Aug 2, 1:04am

Sun Aug 2, 12:05am

Sat Aug 1, 11:04pm

Sat Aug 1, 10:04pm

Sat Aug 1, 9:04pm

Sat Aug 1, 8:05pm

Sat Aug 1, 7:04pm

Sat Aug 1, 5:05pm

Sat Aug 1, 4:05pm

Sat Aug 1, 3:04pm

Sat Aug 1, 2:04pm

Sat Aug 1, 1:04pm

Sat Aug 1, 12:04pm

Sat Aug 1, 11:05am

Sat Aug 1, 10:05am

Sat Aug 1, 9:04am

Sat Aug 1, 8:04am

Sat Aug 1, 7:04am

Sat Aug 1, 6:04am

Sat Aug 1, 5:04am

Sat Aug 1, 4:05am

Sat Aug 1, 3:04am

Sat Aug 1, 2:04am

Sat Aug 1, 1:04am

Sat Aug 1, 12:05am

Fri Jul 31, 11:05pm

Fri Jul 31, 10:04pm

Fri Jul 31, 9:04pm

Fri Jul 31, 8:05pm

Fri Jul 31, 7:05pm

Fri Jul 31, 6:04pm

Fri Jul 31, 5:04pm

Fri Jul 31, 4:05pm

Fri Jul 31, 3:04pm

Fri Jul 31, 2:05pm

Fri Jul 31, 1:04pm

Fri Jul 31, 12:04pm

Fri Jul 31, 11:04am

Fri Jul 31, 10:04am

Fri Jul 31, 9:04am

Fri Jul 31, 8:04am

Fri Jul 31, 7:04am

Fri Jul 31, 6:04am

Fri Jul 31, 5:04am

Fri Jul 31, 4:04am

Fri Jul 31, 3:04am

Fri Jul 31, 2:04am

Fri Jul 31, 1:05am

Fri Jul 31, 12:04am

Thu Jul 30, 11:04pm

Thu Jul 30, 10:04pm

Thu Jul 30, 9:04pm

Thu Jul 30, 8:04pm

Thu Jul 30, 7:05pm

Thu Jul 30, 6:04pm

Thu Jul 30, 5:04pm

Thu Jul 30, 4:05pm

Thu Jul 30, 3:04pm

Thu Jul 30, 2:05pm

Thu Jul 30, 1:04pm

Thu Jul 30, 12:04pm

Thu Jul 30, 11:04am

Thu Jul 30, 10:05am

Thu Jul 30, 9:04am

Thu Jul 30, 8:04am

Thu Jul 30, 7:04am

Thu Jul 30, 6:04am

Thu Jul 30, 5:04am

Thu Jul 30, 4:04am

Thu Jul 30, 3:04am

Thu Jul 30, 2:04am

Thu Jul 30, 1:04am

Thu Jul 30, 12:04am

Wed Jul 29, 11:04pm

Wed Jul 29, 10:04pm

Wed Jul 29, 9:04pm

Wed Jul 29, 8:04pm

Wed Jul 29, 7:05pm

Wed Jul 29, 6:05pm

Wed Jul 29, 5:04pm

Wed Jul 29, 4:04pm

Wed Jul 29, 3:04pm

Wed Jul 29, 2:04pm

Wed Jul 29, 1:05pm

Wed Jul 29, 12:05pm

Wed Jul 29, 11:04am

Wed Jul 29, 10:04am

Wed Jul 29, 9:04am

Wed Jul 29, 8:04am

Wed Jul 29, 7:04am

Wed Jul 29, 6:04am

Wed Jul 29, 5:04am

Wed Jul 29, 4:04am

Wed Jul 29, 3:04am

Wed Jul 29, 2:04am

Wed Jul 29, 1:04am

Wed Jul 29, 12:05am

Tue Jul 28, 11:05pm

Tue Jul 28, 10:05pm

Tue Jul 28, 9:04pm

Tue Jul 28, 8:04pm

Tue Jul 28, 7:04pm

Tue Jul 28, 6:04pm

Tue Jul 28, 5:04pm

Tue Jul 28, 4:05pm

Tue Jul 28, 3:05pm

Tue Jul 28, 2:04pm

Tue Jul 28, 1:05pm

Tue Jul 28, 12:04pm

Tue Jul 28, 11:04am

Tue Jul 28, 10:04am

Tue Jul 28, 9:04am

Tue Jul 28, 8:04am

Tue Jul 28, 7:04am

Tue Jul 28, 6:04am

Tue Jul 28, 5:04am

Tue Jul 28, 4:04am

Tue Jul 28, 3:04am

Tue Jul 28, 2:04am

Tue Jul 28, 1:04am

Tue Jul 28, 12:05am

Mon Jul 27, 11:04pm

Mon Jul 27, 10:05pm

Mon Jul 27, 9:05pm

Mon Jul 27, 8:04pm

Mon Jul 27, 7:04pm

Mon Jul 27, 6:05pm

Mon Jul 27, 5:05pm

Mon Jul 27, 4:04pm

Mon Jul 27, 3:04pm

Mon Jul 27, 2:04pm

Mon Jul 27, 1:04pm

Mon Jul 27, 12:04pm

Mon Jul 27, 11:04am

Mon Jul 27, 10:04am

Mon Jul 27, 9:04am

Mon Jul 27, 8:04am

Meta data:

ID: e05f9a15-ec07-4e07-b45b-a9cf817ba212
Link: https://api.weather.gov/products/e05f9a15-ec07-4e07-b45b-a9cf817ba212